Flag for Guadeloupe Weather past 2 weeks in Basse-Terre, Guadeloupe

Now
75 °F

Passing clouds.


Feels Like: 75 °F
Forecast: 73 / 80 °F
Wind: 5 mph from East

Location: Le Raizet - Guadeloupe

Current Time: Apr 18, 2015 at 5:11:18 AM

Latest Report: Apr 18, 2015 at 4:30 AM


Visibility: N/A

Pressure: 30.01 "Hg

Humidity: 83%

Dew point: 70 °F

Location of Basse-TerreLocation

Historic Weather in Basse-Terre — Graph

°F

Basse-Terre temperature yesterday

Maximum temperature yesterday: 86 °F (at 1:30 PM)
Minimum temperature yesterday: 73 °F (at 5:00 AM)
Average temperature yesterday: 78 °F

Past Weeks' High & Low Weather Summary

 TemperatureHumidityPressure
High86 °F (Apr 13, 11:30 AM)100% (Apr 5, 7:30 AM)30.12 "Hg (Apr 5, 7:30 AM)
Low68 °F (Apr 3, 5:00 AM)48% (Apr 4, 11:30 AM)29.89 "Hg (Apr 4, 2:30 PM)
Average78 °F73%30.01 "Hg
* Reported Apr 3 4:00 AM — Apr 18 4:00 AM, Basse-Terre, Weather by CustomWeather, © 2015

Note: Actual official high and low records may vary slightly from our data, if they occured in-between our weather recording intervals... More about our weather records

Advertising

Basse-Terre weather history for previous 24 hours

 ConditionsComfort  
Time TempWeatherWind HumidityBarometerVisibility
4:00 AM
Sat, Apr 18
75 °FLight rain. Partly cloudy.9 mph83%29.98 "HgN/A
3:30 AM75 °FMild.3 mph78%29.98 "HgN/A
3:00 AM75 °FClear.5 mph83%30.01 "HgN/A
2:30 AM75 °FClear.5 mph83%30.01 "HgN/A
2:00 AM73 °FPassing clouds.2 mph89%30.01 "HgN/A
1:30 AM73 °FClear.No wind83%30.01 "HgN/A
1:00 AM73 °FPassing clouds.No wind83%30.01 "HgN/A
12:30 AM73 °FPassing clouds.No wind83%30.04 "HgN/A
12:00 AM75 °FClear.No wind78%30.04 "HgN/A
11:30 PM
Fri, Apr 17
75 °FClear.2 mph78%30.04 "HgN/A
11:00 PM75 °FClear.2 mph78%30.07 "HgN/A
10:30 PM77 °FClear.3 mph74%30.07 "HgN/A
10:00 PM77 °FPassing clouds.5 mph74%30.04 "HgN/A
9:30 PM77 °FPassing clouds.6 mph74%30.04 "HgN/A
9:00 PM77 °FPassing clouds.5 mph74%30.04 "HgN/A
8:30 PM77 °FClear.6 mph74%30.04 "HgN/A
8:00 PM77 °FPassing clouds.6 mph74%30.01 "HgN/A
7:30 PM79 °FPartly cloudy.6 mph70%30.01 "HgN/A
7:00 PM79 °FPassing clouds.6 mph70%30.01 "HgN/A
6:30 PM79 °FPassing clouds.10 mph70%30.01 "HgN/A
6:00 PM81 °FScattered clouds.9 mph66%29.98 "HgN/A
5:00 PM81 °FScattered clouds.14 mph62%29.98 "HgN/A
4:30 PM82 °FScattered clouds.15 mph55%29.98 "HgN/A
4:00 PM82 °FBroken clouds.14 mph58%29.98 "HgN/A
3:30 PM84 °FBroken clouds.14 mph58%29.98 "HgN/A
2:30 PM84 °FBroken clouds.13 mph55%29.98 "HgN/A
1:30 PM86 °FBroken clouds.15 mph52%30.01 "HgN/A
12:30 PM84 °FBroken clouds.16 mph62%30.04 "HgN/A
12:00 PM81 °FBroken clouds.13 mph70%30.04 "HgN/A
11:30 AM81 °FBroken clouds.15 mph70%30.04 "HgN/A
11:04 AM82 °FPartly sunny.15 mph62%30.04 "HgN/A
10:30 AM82 °FPartly sunny.13 mph62%30.04 "HgN/A
10:00 AM82 °FPartly sunny.13 mph62%30.04 "HgN/A
9:30 AM82 °FScattered clouds.10 mph58%30.04 "HgN/A
9:00 AM82 °FScattered clouds.10 mph62%30.04 "HgN/A
8:30 AM82 °FScattered clouds.10 mph62%30.04 "HgN/A
8:00 AM81 °FScattered clouds.9 mph66%30.04 "HgN/A
7:30 AM79 °FScattered clouds.7 mph74%30.04 "HgN/A
7:00 AM77 °FClear.5 mph79%30.01 "HgN/A
6:30 AM75 °FClear.No wind78%30.01 "HgN/A
6:00 AM73 °FClear.1 mph83%30.01 "HgN/A
5:30 AM73 °FClear.3 mph83%30.01 "HgN/A
5:00 AM73 °FClear.3 mph83%29.98 "HgN/A
Weather by CustomWeather, © 2015

See weather overviewHow to use our weather pages